This is the latest recevied weather packets stored in our database for station/object DJ2DS-13. If no packets are shown the sender has not sent any weather packets the latest 1 day(s).
| Time | Temp. | Humidity | Pressure | Rain* | Wind** | Luminosity | Snow |
|---|---|---|---|---|---|---|---|
| 1778088205 | 11.67° C | 73% | 1009 hPa | 0 mm | - | 137 W/m² | - |
| 1778087906 | 11.67° C | 74% | 1008.9 hPa | 0 mm | - | 162 W/m² | - |
| 1778087606 | 11.67° C | 72% | 1008.9 hPa | 0 mm | - | 223 W/m² | - |
| 1778087300 | 12.22° C | 73% | 1009 hPa | 0 mm | - | 260 W/m² | - |
| 1778086099 | 12.78° C | 72% | 1008.9 hPa | 0 mm | - | 317 W/m² | - |
| 1778084595 | 12.22° C | 71% | 1008.8 hPa | 0 mm | - | 285 W/m² | - |
| 1778084292 | 12.22° C | 71% | 1008.8 hPa | 0 mm | - | 244 W/m² | - |
| 1778083693 | 12.22° C | 71% | 1008.9 hPa | 0 mm | - | 397 W/m² | - |
| 1778082790 | 12.22° C | 72% | 1008.8 hPa | 0 mm | - | 389 W/m² | - |
| 1778082189 | 12.22° C | 72% | 1008.9 hPa | 0 mm | - | 369 W/m² | - |
| 1778081890 | 12.22° C | 72% | 1009 hPa | 0 mm | - | 309 W/m² | - |
| 1778081588 | 12.22° C | 73% | 1008.9 hPa | 0 mm | - | 318 W/m² | - |
| 1778080686 | 12.22° C | 75% | 1008.8 hPa | 0 mm | - | 376 W/m² | - |
| 1778078587 | 12.22° C | 75% | 1008.9 hPa | 0 mm | - | 327 W/m² | - |
| 1778078285 | 12.78° C | 76% | 1008.9 hPa | 0 mm | - | 350 W/m² | - |
| 1778076784 | 12.78° C | 75% | 1009 hPa | 0 mm | - | 392 W/m² | - |
| 1778076485 | 12.78° C | 75% | 1008.9 hPa | 0 mm | - | 373 W/m² | - |
| 1778075583 | 12.78° C | 75% | 1008.8 hPa | 0 mm | - | 373 W/m² | - |
| 1778075280 | 12.78° C | 75% | 1008.9 hPa | 0 mm | - | 362 W/m² | - |
| 1778074681 | 12.78° C | 74% | 1008.8 hPa | 0 mm | - | 368 W/m² | - |
| 1778074072 | 12.78° C | 76% | 1008.8 hPa | 0 mm | - | 410 W/m² | - |
| 1778072868 | 13.33° C | 70% | 1008.7 hPa | 0 mm | - | 501 W/m² | - |
| 1778071064 | 13.89° C | 67% | 1008.6 hPa | 0 mm | - | 457 W/m² | - |
| 1778070765 | 13.33° C | 67% | 1008.6 hPa | 0 mm | - | 452 W/m² | - |
| 1778070465 | 13.89° C | 66% | 1008.5 hPa | 0 mm | - | 477 W/m² | - |
* Rain latest hour (hover to see other rain measurements)
** Current wind speed in m/s (hover to see current wind gust speed)